If you wish to contribute or participate in the discussions about articles you are invited to join SKYbrary as a registered user

 Actions

Angads Airport

From SKYbrary Wiki

GMFO
Airport
ICAO: GMFO – IATA: OUD
Summary
Name Angads Airport
Region Africa
Territory Morocco MA.gif
Location Oujda, Oriental region
Serving Oujda
Elevation 467.868 m <br />1,535 ft467.868 m <br />
Coordinates 34° 47' 13.99" N, 1° 55' 26.00" W
Runways
Designator Length Width Surface ROPS
6/24 3000 m9,842.52 ft <br /> 45 m147.638 ft <br /> BIT yes/yes


METAR
Observation GMFO 170430Z 17004KT CAVOK 16/05 Q1015 NOSIG
Station Oujda
Date/Time 17 May 2021 04:30:00
Wind direction 170°
Wind speed 04 kts
Lowest cloud amount clouds and visibility OK
Temperature 16°C
Dew point 5°C
Humidity 48%
QNH 1015 hPa
Weather condition n/a

Oujda Angads Airport is an airport serving Oujda,[2] a city in the Oriental region in Morocco.

Climatology

Semi-arid climate (Köppen climate classification BSk)

Maps

Terrain

Loading map...

Airport Layout

Loading map...


Accidents & Serious Incidents at or in vicinity of GMFO

None on SKYbrary